Wind_Speed
7 8 8 8 9 9 10 10 10 10 10 11 11 11 12 12 12 13 12 12 12 12 13 13 12 12 13 14 14 15 15 15 15 15 13 13 12 10 11 11 11 11 10 9 9 9 9 9 9 9 9 10 10 11 11 12 11 11 10 10 9 9 8 8 8 8 7 5 4 5 5 6 6 7 8 9 10 10 11 11 10 10 10 11 12
7 8 8 8 9 9 10 10 11 11 11 12 12 12 13 14 14 14 13 13 13 13 12 12 11 11 12 12 13 14 14 14 15 14 14 15 13 12 13 14 14 13 13 12 12 11 11 10 10 9 10 10 10 11 10 11 11 10 10 10 9 9 9 9 10 10 10 8 5 5 5 5 6 6 7 8 10 11 12 12 11 11 11 11 11
7 7 7 8 9 10 10 11 11 12 12 12 12 13 13 14 14 14 14 14 14 13 12 11 10 11 11 10 12 13 14 14 14 13 14 14 14 14 14 15 15 15 14 14 14 13 12 11 11 10 10 10 10 10 10 10 10 10 10 10 9 9 10 10 11 11 12 11 9 8 7 7 7 7 7 8 9 11 11 12 11 10 10 10 10
7 7 7 8 9 10 11 11 11 12 12 12 13 13 13 14 14 14 14 14 14 13 12 10 10 11 11 10 12 13 13 13 12 12 13 13 13 14 15 16 17 16 15 15 15 14 13 13 12 12 11 11 10 10 9 10 10 10 10 10 9 10 10 10 11 12 12 12 12 12 12 11 11 11 10 11 11 12 12 11 9 8 8 8 8
7 7 8 9 11 11 11 11 11 11 12 12 13 13 14 14 14 14 14 14 14 14 13 11 11 10 10 10 11 11 11 11 10 11 12 12 13 15 16 17 17 17 16 16 15 14 14 14 13 13 13 12 11 10 10 10 10 10 10 10 10 10 10 10 11 11 11 11 12 13 13 13 13 13 13 13 14 16 17 16 12 10 9 10 9
7 8 9 11 11 12 12 11 10 11 12 12 13 14 14 15 15 15 14 15 15 14 13 13 12 11 11 10 8 9 10 9 9 11 12 13 14 15 16 17 17 17 16 16 16 15 14 14 14 14 14 13 12 11 10 10 10 10 10 10 10 11 11 11 10 10 10 11 11 11 11 12 12 12 13 13 14 16 17 18 17 15 13 13 12
8 9 10 11 11 12 12 12 12 12 13 12 13 14 15 15 15 14 14 15 14 14 14 13 13 13 13 11 8 9 10 9 9 11 12 13 14 15 15 16 16 16 16 16 16 16 15 14 14 14 14 14 13 11 10 10 9 10 10 10 10 11 11 10 10 10 10 10 10 10 11 11 11 12 12 12 13 14 15 16 16 15 14 14 14
8 9 10 11 11 12 13 13 13 14 14 14 13 14 15 15 14 14 14 15 14 14 14 14 14 14 14 13 10 10 11 10 11 12 12 14 15 14 14 14 14 14 14 15 15 16 15 14 14 14 13 13 13 12 11 10 9 9 9 9 10 10 10 10 10 10 10 10 10 11 11 12 12 11 12 12 12 13 14 14 14 14 14 14 14
8 9 10 11 11 12 14 14 15 15 15 14 14 14 14 14 14 15 15 16 16 15 15 14 14 14 14 14 12 11 12 12 12 12 13 14 15 14 14 14 14 14 13 13 14 14 14 14 13 13 13 12 13 12 12 11 9 9 8 8 9 9 9 9 9 9 10 10 10 10 11 12 12 12 12 12 12 12 12 13 13 13 13 13 14
7 9 10 10 11 13 15 15 15 16 15 14 14 14 14 14 14 15 15 16 16 15 15 14 14 14 14 14 13 12 11 12 13 13 13 15 15 14 14 14 14 13 13 13 13 13 13 13 12 12 12 12 12 13 13 12 11 10 9 8 8 8 8 8 8 8 9 9 9 10 11 12 12 12 12 12 12 12 12 12 12 13 13 14 14
7 8 9 10 11 13 14 14 15 16 15 14 14 14 14 14 14 14 14 14 15 15 15 14 14 13 13 13 13 12 11 12 12 13 13 14 14 14 14 14 14 13 13 13 13 13 13 13 12 12 12 12 12 12 13 13 13 12 11 10 10 9 9 9 9 9 9 9 10 10 11 12 12 12 12 12 12 12 12 12 12 12 13 13 14
6 7 8 9 11 12 13 13 15 15 14 15 14 14 13 13 13 12 13 13 13 13 13 13 13 12 12 12 12 12 12 12 12 12 13 13 13 12 12 13 12 13 13 12 12 12 12 12 12 12 13 13 13 12 12 12 12 12 12 12 11 11 10 10 10 10 10 10 10 11 11 11 12 12 12 11 11 11 11 11 11 12 12 13 14
5 6 7 8 10 11 11 12 13 13 13 14 14 14 14 13 12 11 11 12 12 11 11 12 12 11 11 11 11 11 11 11 11 12 12 12 11 11 11 11 11 11 11 11 11 11 11 11 12 12 12 13 12 12 12 12 12 12 12 12 12 12 12 12 12 12 12 12 12 12 12 12 12 12 12 12 12 11 10 10 10 11 11 12 13
4 5 5 7 8 10 10 10 11 12 12 13 14 14 14 13 12 11 11 11 10 9 10 10 11 11 11 11 10 10 10 10 10 10 11 11 10 10 10 10 11 11 11 10 10 10 10 11 11 11 11 11 12 11 11 12 11 11 12 11 11 11 11 11 12 12 12 12 12 11 12 12 13 13 14 14 13 12 12 11 11 11 11 12 13
4 4 4 5 7 8 9 9 9 10 11 12 13 13 14 13 11 11 11 11 9 9 9 10 10 12 12 11 10 10 10 10 10 10 10 10 10 10 10 11 11 12 12 11 10 10 10 11 10 10 10 10 11 10 10 10 10 11 11 11 10 10 10 10 10 10 10 10 10 10 11 11 12 12 12 13 13 13 13 12 12 12 13 14 14
3 3 3 4 5 7 8 8 8 9 10 11 12 12 13 13 12 12 12 11 10 10 10 10 11 13 13 11 11 11 12 11 11 10 10 10 11 11 11 11 12 13 13 13 12 11 11 11 11 10 10 10 10 10 10 9 9 9 9 9 9 9 9 9 9 8 8 8 9 9 10 10 10 10 10 10 10 11 11 11 12 13 14 15 16
3 2 2 3 4 5 7 7 7 8 9 10 10 11 13 13 12 13 13 12 11 11 10 9 11 12 13 12 12 13 13 12 13 12 11 12 12 12 12 12 13 13 13 14 14 13 12 12 12 11 11 10 10 10 10 10 9 9 9 9 9 9 8 8 8 7 8 8 8 8 9 9 9 9 9 10 10 10 10 11 12 13 14 15 16
3 2 2 2 3 4 6 7 7 7 7 8 9 10 12 13 13 13 13 13 12 11 9 9 10 11 11 12 12 13 13 13 13 12 12 13 13 13 13 13 13 13 13 13 13 13 13 13 13 12 11 10 10 11 11 10 10 9 9 9 9 9 9 8 8 8 8 9 9 9 10 10 11 11 11 12 12 13 14 14 15 16 17 18 19
3 3 2 2 2 3 5 6 6 6 7 7 8 9 11 12 12 12 12 13 12 10 9 8 9 10 10 11 11 11 11 12 12 12 12 13 13 14 14 14 14 13 13 13 12 13 14 14 13 12 11 10 10 10 11 11 10 10 10 9 9 10 10 10 10 11 11 11 11 12 12 13 13 13 14 15 15 16 16 17 18 19 20 20 21
3 3 3 2 2 3 4 5 6 6 6 7 7 8 9 11 11 11 11 11 11 11 9 8 9 10 10 9 10 10 10 11 12 12 12 13 14 15 15 15 15 14 13 13 13 13 13 13 12 12 11 11 10 10 10 10 10 10 10 10 10 11 11 11 12 12 12 12 12 13 13 13 14 14 15 16 16 17 17 18 19 20 21 21 22
3 3 3 3 3 3 4 5 5 5 6 6 6 7 8 9 10 10 10 11 11 11 10 8 8 9 9 9 9 9 9 10 11 12 12 13 14 15 15 15 15 14 13 13 13 12 12 12 11 11 10 10 9 9 9 9 9 8 9 9 9 9 9 10 10 10 11 11 12 12 13 13 14 15 16 16 17 18 18 19 20 20 21 22 23
4 4 4 4 4 4 4 4 5 5 5 5 6 6 7 8 9 9 9 10 11 11 10 9 8 8 9 9 9 9 9 10 11 12 12 13 14 14 14 15 14 13 13 12 12 11 11 11 10 10 10 8 8 9 9 9 8 8 8 8 8 8 8 9 9 10 11 11 12 13 14 15 16 17 18 18 19 19 20 20 21 21 22 23 23
5 4 4 4 4 4 4 4 5 5 5 5 5 5 6 7 7 8 8 9 10 10 9 9 9 8 9 9 10 10 10 10 11 12 12 13 13 13 14 14 12 12 12 11 11 11 11 10 9 10 10 8 8 9 9 9 9 9 9 9 10 10 11 11 11 12 13 13 14 15 16 16 17 18 19 20 20 21 21 22 22 22 23 23 23
6 5 4 4 4 5 5 6 6 5 5 5 5 5 6 6 6 7 7 8 9 10 9 8 8 8 9 9 10 11 11 11 12 12 12 13 13 12 12 11 10 10 10 10 11 11 10 10 10 10 10 9 10 10 10 10 10 10 11 12 13 14 14 15 15 16 16 16 16 17 17 18 19 20 21 22 23 23 23 23 23 23 23 24 24
6 5 4 3 4 5 6 7 7 6 5 5 5 5 6 6 6 6 5 6 8 9 9 8 8 8 8 9 10 10 11 11 11 12 12 12 12 12 11 9 9 9 8 8 9 10 10 10 10 10 10 9 10 10 11 11 11 12 13 14 16 16 17 18 18 19 19 19 19 19 20 21 22 23 24 24 24 24 24 24 24 24 24 25 25
5 5 3 2 3 4 5 6 7 7 7 6 6 5 6 7 7 6 5 5 6 7 8 8 7 7 8 9 9 10 10 11 11 12 12 11 10 10 9 9 9 8 7 7 7 7 8 9 10 10 9 10 10 11 12 12 13 14 15 16 17 18 19 20 21 21 21 22 22 22 23 23 24 25 25 25 25 25 25 25 25 25 26 26 27
5 4 2 1 1 2 4 5 6 7 8 8 7 7 7 7 7 7 6 5 4 5 6 7 7 6 7 8 8 9 9 11 12 12 12 11 10 9 9 9 10 9 9 9 8 8 7 7 8 9 9 10 11 12 12 13 14 15 16 17 18 19 20 21 22 23 23 24 24 24 25 25 26 26 26 26 27 27 27 27 27 28 28 29 30
4 3 2 2 1 2 3 5 6 7 8 8 9 9 9 8 8 8 8 6 5 4 5 6 6 6 6 6 6 7 7 9 11 12 12 12 11 11 11 11 11 11 11 11 11 11 10 9 9 9 10 11 12 12 13 14 16 17 17 18 19 20 21 21 22 23 24 25 25 25 26 26 27 27 27 28 28 28 28 28 29 30 30 31 31
4 4 4 3 3 3 4 5 7 8 8 9 9 9 10 10 9 9 9 8 7 5 5 5 6 7 7 7 6 6 7 8 10 11 11 11 12 12 13 13 12 12 11 11 11 11 12 11 11 11 11 12 13 13 14 15 16 17 17 18 19 20 21 22 23 24 25 25 26 26 26 27 27 27 27 27 28 28 29 29 30 31 31 32 33
5 5 5 5 6 5 5 6 7 9 9 9 10 10 11 11 11 11 10 9 8 7 6 5 6 6 7 7 8 7 7 7 8 9 10 10 11 12 14 14 14 14 12 11 10 11 12 12 12 12 13 13 13 14 15 15 16 16 17 18 19 20 21 22 23 23 24 24 25 25 25 25 26 26 27 27 28 29 29 29 30 31 32 33 34
7 7 7 8 9 9 9 8 9 10 10 11 11 12 12 12 12 12 12 11 10 9 8 7 6 6 7 7 8 8 7 7 8 9 9 10 11 12 13 13 14 14 14 12 10 9 10 11 11 12 13 14 15 14 14 15 15 16 16 18 19 20 21 22 22 23 24 24 24 24 24 24 25 25 26 27 28 29 29 30 31 32 33 34 35
9 9 10 11 11 12 12 12 11 11 12 12 12 13 13 13 13 13 13 13 12 11 10 9 8 7 7 7 7 8 8 8 8 9 10 10 11 12 12 12 13 13 13 13 11 9 8 9 11 11 11 13 15 15 14 14 15 16 17 18 19 20 21 22 22 23 24 24 24 25 25 25 25 26 27 28 29 29 30 30 32 33 34 35 37
11 12 12 13 13 13 14 15 14 14 14 14 14 14 14 14 14 15 14 14 14 13 11 10 10 9 8 8 7 7 8 9 9 10 10 11 11 12 12 12 12 12 12 12 11 11 10 10 10 12 12 12 13 15 16 15 15 16 17 18 19 20 21 22 23 24 25 25 26 26 26 26 27 28 28 29 30 31 32 32 33 34 35 36 38
12 13 13 13 14 13 14 15 16 16 15 15 15 15 16 16 16 16 16 15 15 14 13 11 10 10 10 9 9 8 9 9 10 11 11 11 11 12 13 13 13 13 12 11 11 12 12 12 12 13 14 14 14 15 16 17 17 17 18 19 19 20 21 23 24 24 25 25 27 28 28 29 29 29 30 32 33 34 35 35 35 35 36 37 38
13 12 13 13 13 13 13 13 14 16 16 16 16 16 16 17 17 17 17 16 15 14 14 13 11 10 11 11 10 10 10 10 11 12 12 12 12 13 13 14 14 14 13 12 11 12 12 13 14 13 14 15 16 16 16 17 19 20 20 21 21 22 23 24 25 26 26 27 28 29 30 31 31 31 32 34 36 37 38 38 37 36 36 37 39
13 13 13 13 13 14 14 14 13 14 16 17 17 16 16 17 17 17 17 17 17 15 14 14 13 11 11 11 12 12 12 12 13 13 13 13 13 14 14 14 15 15 16 15 14 13 13 13 14 15 15 16 16 16 17 18 19 21 22 23 24 25 25 26 26 28 29 29 30 31 32 33 33 34 34 36 38 40 41 41 40 38 37 38 40
14 15 14 14 14 14 15 15 15 14 14 16 17 17 16 16 17 18 17 17 18 17 15 14 14 13 11 12 13 13 13 14 15 15 15 15 15 15 16 16 16 16 17 18 18 17 16 14 15 16 17 18 19 19 19 20 21 22 23 25 26 27 28 28 29 30 31 32 32 33 34 35 35 36 37 39 40 42 43 44 42 39 38 38 40
15 15 15 15 15 15 15 16 16 16 15 15 16 17 17 16 17 18 18 18 18 18 16 15 15 14 13 13 13 13 14 15 17 17 17 17 17 17 17 17 17 17 17 18 19 19 19 18 18 17 17 18 20 21 21 22 22 23 24 26 27 28 29 31 31 31 32 34 35 36 36 37 38 38 40 41 42 44 45 45 44 41 39 39 39
15 15 15 15 15 16 16 15 15 16 16 15 15 16 17 16 16 17 18 19 19 18 16 16 16 15 14 14 14 14 14 15 17 19 19 20 20 20 19 19 18 18 18 18 19 19 20 20 21 21 21 21 22 23 23 24 25 26 26 27 29 31 31 32 33 34 34 35 37 38 39 39 40 40 41 43 44 45 46 46 45 43 41 40 39
14 14 15 15 15 16 16 15 14 14 15 15 14 15 15 16 16 17 18 19 19 16 14 15 17 16 15 15 14 14 14 15 17 19 20 21 21 21 22 21 20 19 19 20 20 20 21 21 22 24 24 24 25 26 26 27 28 29 29 29 31 33 34 35 36 37 37 37 39 41 42 42 42 42 43 44 45 45 45 46 46 45 43 41 40
14 14 14 15 15 16 15 14 14 13 13 14 14 13 13 14 14 16 16 17 16 14 12 13 15 16 16 15 14 14 14 15 16 18 19 21 22 23 24 24 23 22 22 22 22 22 23 23 23 25 26 27 29 30 31 31 31 32 33 33 34 35 36 37 39 40 40 40 41 42 44 44 44 44 44 45 45 45 45 46 47 46 44 42 40
14 14 14 14 15 15 14 13 13 13 13 13 12 12 11 11 12 13 13 13 13 11 10 10 12 14 15 16 15 15 15 16 17 18 19 20 21 22 24 25 25 25 25 25 24 25 25 25 25 26 27 28 31 34 35 35 36 36 36 37 38 39 39 39 40 42 43 43 43 44 46 45 45 46 46 46 45 44 45 46 47 47 45 42 40
15 14 14 13 14 14 14 13 12 12 12 11 10 10 10 10 10 10 9 8 9 9 9 9 10 12 13 15 16 16 16 17 18 18 20 21 22 23 24 26 27 27 27 27 27 28 29 28 28 29 29 30 32 35 37 38 39 39 40 40 41 42 42 41 41 43 45 45 46 46 48 48 48 48 48 47 45 45 45 46 47 47 45 41 39
15 15 14 13 13 13 13 12 11 10 10 9 9 9 9 8 8 8 7 6 7 8 9 9 9 10 11 12 14 15 15 15 16 16 17 18 20 22 24 26 28 28 28 29 29 30 31 31 31 31 32 33 34 36 38 40 41 41 41 42 43 44 45 44 43 45 46 47 48 48 50 52 51 52 52 50 46 46 46 47 47 47 45 41 38
15 15 14 13 12 11 11 11 9 9 8 8 8 8 8 7 7 7 7 7 7 7 8 8 9 9 9 10 11 12 13 14 14 15 16 17 18 20 22 25 27 28 30 31 30 30 31 32 32 31 32 34 36 37 39 41 42 42 43 44 45 46 46 45 45 46 48 49 50 51 52 54 56 56 55 52 48 47 47 48 47 47 45 41 37
14 14 13 13 11 9 9 9 8 8 7 7 8 8 8 8 8 8 8 8 8 8 8 9 10 11 12 13 14 15 16 17 18 19 20 21 22 22 23 25 26 28 31 32 32 33 34 34 34 34 33 35 36 37 39 42 42 43 43 45 46 47 47 47 47 48 50 51 53 54 54 56 58 57 55 52 49 47 48 49 48 47 45 41 36
14 13 12 11 10 9 9 8 8 7 7 7 8 8 9 10 10 10 11 11 11 12 12 13 14 15 17 18 19 20 21 22 22 23 24 25 27 27 28 29 29 31 33 33 34 35 37 38 39 39 39 40 40 40 41 43 44 45 46 47 48 49 49 50 50 50 51 53 55 56 55 56 58 57 55 54 49 47 50 51 48 47 45 40 36
14 12 11 11 10 9 9 8 7 7 8 8 9 10 11 12 13 13 14 14 14 15 16 18 19 20 21 22 23 24 25 25 26 27 28 29 30 31 32 33 34 35 35 33 33 36 38 40 41 42 43 45 45 44 45 46 47 48 48 49 49 50 51 52 51 50 52 53 55 56 56 56 56 55 55 54 50 48 52 53 50 48 45 40 36
13 12 12 11 10 9 8 8 7 8 9 9 10 11 12 14 16 17 18 19 19 19 20 22 23 23 24 25 26 27 28 28 29 30 31 32 34 34 35 37 38 38 36 33 34 36 38 41 43 44 44 44 45 46 47 48 48 49 50 49 48 49 51 51 51 51 53 54 55 56 55 55 55 54 55 54 52 51 54 55 52 49 45 40 36
13 12 12 11 10 9 8 9 9 10 11 12 13 13 15 17 18 19 21 23 23 24 24 25 27 27 27 27 27 28 28 28 30 32 33 35 37 38 39 40 41 40 37 36 38 39 40 43 46 47 47 46 46 47 48 49 49 50 50 49 48 49 50 50 51 53 54 55 55 56 56 56 56 56 57 56 55 55 55 54 50 47 44 39 35
12 13 12 10 9 9 9 10 11 12 13 15 16 17 18 20 21 22 23 24 24 24 26 27 29 30 30 30 30 30 30 31 32 34 36 38 40 41 42 44 44 42 40 41 44 44 45 46 48 49 51 51 51 52 51 51 51 51 51 50 49 50 50 50 52 54 55 55 56 57 57 57 58 58 58 58 57 56 54 50 48 47 45 39 33
Wind_Direction
76 70 65 59 57 55 51 49 48 47 47 45 40 41 47 48 48 45 40 36 35 39 50 57 58 59 60 65 67 64 63 61 58 57 56 56 50 41 44 45 44 43 41 44 47 47 43 41 42 42 41 41 42 44 45 50 52 51 50 47 45 45 45 38 29 19 7 349 334 331 330 324 316 313 314 317 320 321 321 321 323 328 336 345 352
73 66 63 56 52 50 47 45 44 44 46 49 47 44 43 43 44 44 39 36 37 37 40 45 51 56 59 62 66 66 64 62 58 54 51 53 51 42 42 42 40 38 38 40 42 43 40 37 36 35 34 35 38 39 39 45 48 49 50 47 44 44 43 39 35 32 28 24 17 6 0 356 349 341 333 330 328 325 322 320 320 324 329 335 340
75 66 58 52 49 46 44 44 45 46 48 52 53 47 40 36 36 36 36 34 35 38 37 37 41 48 53 53 57 60 59 58 58 56 52 50 50 46 44 43 40 37 35 36 39 40 38 35 33 31 30 30 33 36 36 40 45 47 48 48 45 45 42 37 36 37 40 44 47 47 42 36 29 21 12 3 356 347 337 329 326 330 333 334 336
74 65 56 51 47 43 40 40 43 48 52 55 53 46 39 36 33 32 34 33 33 37 38 39 42 45 47 44 48 53 53 54 54 56 55 49 47 47 45 45 42 38 35 35 37 36 33 32 30 30 30 28 29 34 38 41 46 47 48 50 50 50 48 43 41 43 47 53 58 62 62 61 58 54 47 40 31 22 12 359 349 349 350 350 349
68 60 54 48 43 39 36 35 38 46 52 52 48 43 40 38 35 33 35 36 36 37 38 41 46 51 52 44 44 51 53 51 50 51 54 49 44 44 43 44 44 41 38 37 37 36 33 30 29 31 31 29 31 35 40 44 48 49 48 50 51 53 55 52 49 48 50 54 58 62 65 65 65 63 59 53 47 41 37 35 34 31 24 19 17
63 56 50 46 42 37 34 33 36 45 51 49 45 44 44 41 35 33 33 36 38 38 40 41 44 53 64 59 46 53 60 54 49 49 50 49 44 42 41 41 43 41 40 39 38 38 37 33 31 32 32 31 33 35 40 46 50 51 52 53 53 55 58 58 55 52 52 54 56 59 62 64 65 65 62 57 52 49 48 49 50 48 42 37 33
58 51 48 47 43 39 35 35 39 46 52 51 46 46 46 43 38 34 33 36 37 39 43 43 43 46 57 66 51 48 61 53 46 47 46 49 48 46 43 42 42 40 39 40 40 40 39 37 36 35 33 32 35 36 39 45 50 53 56 58 58 58 59 59 57 55 53 55 57 59 60 61 62 62 61 58 56 54 53 53 54 51 47 41 36
55 50 49 47 44 41 37 41 48 51 53 52 47 44 44 44 43 40 38 40 40 41 43 44 47 45 47 59 53 42 52 48 42 43 42 48 50 49 49 46 45 43 41 40 40 39 38 37 38 38 36 33 35 37 38 42 47 51 57 59 59 60 61 60 59 56 54 55 55 56 56 54 53 52 51 52 52 51 51 51 50 49 45 41 35
56 53 51 47 44 42 43 49 57 58 55 52 47 42 43 46 48 48 46 45 45 44 44 44 48 50 48 53 53 43 45 45 42 40 38 44 47 47 48 48 48 46 44 43 42 40 37 36 37 38 37 34 34 35 36 37 39 42 49 56 57 58 60 60 58 57 56 54 51 48 46 44 42 41 39 39 41 42 41 41 41 40 37 35 32
59 58 52 45 41 42 47 54 61 62 59 52 46 45 47 50 52 53 51 49 48 47 48 47 48 51 51 54 56 48 46 47 44 42 41 42 45 44 44 45 45 44 43 42 42 43 41 38 38 39 38 36 35 34 35 34 34 34 34 40 44 47 51 52 52 53 50 47 43 39 37 36 34 32 29 27 29 30 30 30 30 30 28 26 24
66 64 55 44 40 42 48 56 62 63 59 52 48 49 50 52 54 53 49 48 48 47 47 48 48 50 53 58 61 58 54 53 50 50 49 48 47 45 43 43 40 38 37 36 36 38 40 39 40 42 41 40 38 36 36 34 33 32 30 31 31 30 32 33 35 36 37 34 32 30 29 27 24 22 20 18 17 18 19 20 20 20 19 17 16
73 67 57 45 40 43 48 55 61 61 57 52 51 53 52 51 52 50 47 44 42 43 42 42 44 47 53 59 63 64 61 59 58 58 57 56 56 53 50 47 42 38 34 32 31 31 33 35 37 41 43 44 43 39 38 37 35 35 35 33 31 28 24 23 23 23 23 21 19 18 16 12 10 7 6 5 5 5 5 7 9 10 9 8 7
84 72 58 47 41 43 49 55 59 60 56 52 52 53 51 48 47 46 45 42 36 35 36 36 37 42 51 57 61 64 65 65 66 67 65 63 62 61 60 57 52 47 40 34 30 28 30 34 36 39 42 45 45 43 42 40 39 39 40 38 35 33 30 26 25 22 20 18 16 13 9 5 1 359 357 356 354 353 352 352 352 355 357 357 357
96 77 60 47 41 43 50 56 58 59 55 53 54 52 47 44 45 48 48 42 33 30 30 32 36 42 49 54 57 63 67 66 65 66 69 68 65 65 66 64 60 58 52 44 36 34 38 40 38 40 43 46 46 45 45 45 44 44 44 43 41 39 36 34 32 30 27 23 20 15 12 9 6 3 0 358 355 352 349 345 342 341 341 342 343
109 81 61 45 41 43 50 57 57 56 53 52 54 49 44 44 48 52 50 42 34 35 37 37 44 48 50 52 56 61 65 65 63 61 63 68 69 67 68 67 64 63 62 59 52 45 46 49 46 46 48 49 47 45 44 45 47 49 49 47 47 45 43 42 40 39 36 31 26 21 18 16 13 11 6 3 359 355 350 344 339 334 331 331 331
124 90 65 44 42 44 51 59 60 55 51 49 50 44 40 45 50 49 46 42 41 46 47 47 51 54 54 55 59 62 63 66 68 68 69 73 74 72 70 69 65 63 62 64 65 63 60 60 58 57 57 57 54 49 45 43 43 45 48 48 48 47 45 44 42 39 36 32 27 22 19 16 14 10 6 2 356 350 344 337 332 327 324 322 320
136 105 80 53 44 46 52 58 63 60 52 49 47 41 38 41 47 46 43 43 43 46 50 52 55 60 60 60 61 63 64 67 70 72 75 78 78 76 74 71 66 62 60 60 62 66 68 67 66 64 63 64 63 60 53 47 43 38 39 40 40 39 38 37 34 30 26 23 19 13 9 4 1 357 352 348 342 337 332 326 323 319 316 314 312
146 126 103 70 48 49 53 56 62 62 57 53 47 39 36 37 42 42 41 42 41 41 48 56 61 65 68 65 63 65 66 67 68 69 72 76 77 75 73 71 67 62 60 59 58 59 62 62 61 61 62 63 64 64 60 52 44 39 37 36 34 32 29 26 22 20 17 12 7 2 357 353 348 345 340 337 333 330 326 323 321 318 316 314 312
149 134 116 92 64 54 54 56 59 60 58 54 47 40 36 36 39 40 38 40 40 40 48 60 67 69 73 72 68 67 64 62 61 61 64 67 69 69 68 67 64 59 57 58 56 53 54 54 54 53 55 58 60 60 59 54 44 37 33 31 29 26 21 16 12 9 7 3 359 354 350 347 343 340 337 334 331 328 326 324 322 320 318 317 316
149 131 116 104 80 61 58 58 56 55 55 53 46 41 38 36 39 39 36 37 40 43 47 58 66 68 71 73 70 64 57 53 51 52 55 59 62 65 66 65 63 58 53 53 53 53 52 51 51 49 46 47 50 52 53 52 45 37 31 25 22 20 15 10 6 2 360 356 352 348 344 341 338 336 333 331 329 327 325 323 321 320 319 318 318
145 126 114 101 87 69 59 58 56 52 52 52 47 41 38 37 38 38 35 31 36 44 47 54 61 62 64 65 64 57 49 46 46 48 52 54 56 59 62 62 60 57 55 51 49 51 54 53 52 55 52 43 40 44 44 44 42 38 34 26 20 16 10 7 2 357 353 349 344 340 337 336 334 333 331 329 327 325 323 321 319 318 317 317 316
139 126 108 93 82 69 58 54 54 49 44 47 44 36 33 35 38 39 35 28 31 41 46 50 54 56 58 58 57 51 43 40 42 47 51 54 55 55 56 55 52 50 52 52 50 50 55 56 54 59 62 56 48 44 38 33 29 26 25 21 17 13 7 4 359 353 349 345 341 339 337 336 335 333 331 330 328 326 324 322 322 321 320 320 320
137 124 101 84 72 62 56 50 48 43 34 35 33 27 24 28 35 38 35 28 27 34 41 46 48 49 52 52 51 48 41 40 43 45 46 50 54 55 54 53 48 41 39 42 47 48 51 53 50 51 51 48 48 46 36 26 21 15 12 10 7 3 359 357 353 349 346 342 340 339 338 336 335 334 333 332 331 330 329 329 328 328 327 326 325
140 123 100 82 63 53 50 47 48 42 29 23 21 17 12 13 24 31 32 28 24 27 31 38 43 43 46 47 47 48 46 45 46 45 42 41 43 45 48 50 50 44 33 28 31 33 37 39 37 38 34 27 27 29 24 16 10 4 4 3 0 356 353 351 348 344 342 339 337 336 336 336 336 336 336 336 335 335 335 334 333 332 330 328 326
143 127 110 82 59 49 45 42 44 43 35 23 10 5 3 1 5 14 22 23 22 22 21 24 31 36 40 40 40 43 47 49 48 44 40 37 34 32 32 31 36 41 35 30 26 20 20 20 19 20 18 11 8 8 6 0 356 355 356 356 354 352 349 346 344 342 340 338 338 338 339 339 339 339 339 339 338 338 337 336 334 332 330 327 325
145 134 128 90 56 40 33 32 33 35 32 25 10 357 353 351 351 354 0 8 15 17 14 11 14 20 28 33 35 37 43 47 46 41 34 31 28 23 18 14 15 19 19 20 21 16 14 10 3 0 359 357 357 358 355 350 347 349 350 350 348 347 346 345 344 343 343 342 342 342 342 341 341 340 340 340 339 338 338 336 335 333 330 327 326
146 143 158 142 50 8 3 8 14 18 19 17 10 359 349 343 341 340 341 344 352 3 5 2 360 360 9 23 30 34 39 40 37 34 28 25 24 20 13 7 1 0 0 0 359 358 1 0 353 345 343 345 350 351 347 343 342 343 345 347 346 346 346 347 347 346 346 346 345 344 343 342 342 342 341 340 340 339 338 336 335 332 330 328 326
158 166 201 235 270 312 324 336 347 355 358 360 360 356 349 341 334 331 330 331 328 331 344 348 347 343 344 359 14 22 26 24 21 21 23 26 27 23 16 6 354 348 345 345 344 342 340 340 340 340 340 341 341 340 337 336 338 340 342 344 345 345 346 347 347 347 346 346 345 344 343 342 342 342 341 340 339 338 336 335 333 331 329 327 326
186 196 222 249 267 284 299 310 320 329 335 338 342 345 343 340 333 326 320 321 320 313 315 326 332 331 331 336 344 349 355 0 4 9 14 20 20 16 12 8 2 356 348 339 331 330 328 327 329 334 335 335 333 331 330 331 335 338 341 343 343 344 345 345 345 344 343 342 342 342 342 341 341 341 340 338 337 336 335 334 333 331 329 328 326
208 220 236 253 266 274 281 288 296 306 313 317 323 328 331 332 331 326 317 312 313 311 304 304 313 319 323 328 332 334 338 345 352 358 3 6 4 1 2 3 5 6 4 354 337 327 323 322 324 328 328 328 328 329 331 332 335 338 340 342 343 343 344 344 343 342 340 339 339 340 340 341 340 339 338 337 337 336 335 335 334 332 330 328 326
226 235 245 255 264 270 275 278 281 287 294 298 303 310 316 320 323 324 319 310 306 306 304 298 297 304 313 320 326 329 334 340 344 348 351 352 351 351 353 355 357 0 3 4 356 340 328 321 321 323 326 327 327 329 333 336 337 339 340 341 343 343 343 342 342 342 341 340 340 340 340 341 340 339 337 337 336 336 336 336 335 333 330 329 328
237 243 251 256 262 269 275 278 278 279 282 286 289 293 299 305 311 317 319 313 304 299 301 299 296 296 302 310 317 321 326 330 334 337 338 338 339 342 345 350 352 354 355 357 356 350 338 326 321 321 325 328 329 331 336 340 341 340 341 342 343 344 345 345 345 346 346 345 344 344 343 343 342 340 338 337 337 337 338 338 336 333 332 331 329
242 248 252 256 260 265 271 277 280 280 279 280 281 282 284 289 297 305 311 313 306 298 296 297 297 297 297 302 307 311 314 318 321 325 327 329 332 335 338 342 346 349 350 350 348 346 342 336 330 328 329 333 337 339 341 344 346 345 344 344 344 346 347 349 350 350 350 349 348 347 346 346 346 345 343 341 339 339 338 337 336 334 332 331 330
247 251 256 261 264 265 267 271 277 281 281 280 279 277 277 279 285 292 300 308 308 301 292 290 294 296 296 297 298 302 306 309 313 316 319 323 326 329 333 336 338 342 345 346 343 340 338 337 337 337 337 338 341 344 345 345 345 344 342 342 342 344 346 347 347 348 349 349 348 347 347 348 349 349 347 346 344 341 339 336 334 333 332 331 330
255 258 261 266 271 274 274 271 272 276 278 279 278 277 276 277 279 283 289 298 305 302 291 284 286 289 290 291 291 294 299 301 305 308 312 315 318 322 326 330 332 334 337 340 341 339 337 335 335 338 340 341 341 342 343 342 341 339 337 337 339 340 341 342 342 342 343 344 344 345 345 345 346 347 347 346 345 343 341 337 334 333 333 332 331
261 266 270 273 277 281 282 279 274 273 274 277 279 279 277 277 278 279 282 289 297 300 290 279 277 280 283 284 285 288 293 295 297 300 303 308 312 316 321 325 328 330 332 334 335 335 335 332 330 331 332 334 335 336 336 335 335 334 334 335 336 338 338 338 338 337 337 338 339 340 340 340 341 341 341 342 342 342 341 338 336 334 333 333 332
264 270 276 280 282 282 283 284 283 280 276 276 279 280 278 277 277 277 279 282 288 294 291 277 270 272 275 277 280 284 289 290 291 294 298 302 307 312 316 320 324 327 330 332 332 331 330 328 326 326 326 326 326 327 328 330 330 331 331 332 333 335 336 336 336 335 334 334 334 335 336 336 336 336 336 337 338 339 338 337 336 334 333 332 331
267 270 275 279 281 282 283 285 286 286 282 278 277 279 279 276 274 275 275 276 282 290 290 277 264 262 267 274 279 283 286 287 290 293 296 300 304 308 311 315 319 323 326 328 328 328 326 325 323 322 324 325 323 323 323 325 326 326 327 328 328 329 332 333 333 333 332 331 331 332 332 333 333 333 334 334 335 336 336 336 336 335 333 331 330
267 270 272 274 276 280 285 286 285 285 285 282 278 276 276 274 273 273 274 275 282 289 288 276 264 257 258 267 277 283 287 289 291 294 296 299 302 304 306 309 312 317 320 321 322 321 319 319 319 317 318 319 319 318 318 319 319 319 321 323 324 324 326 328 329 329 329 329 329 329 329 330 331 331 332 332 334 335 335 335 336 335 332 328 328
265 265 267 270 274 279 284 286 286 286 286 285 281 276 275 275 274 275 278 282 287 290 284 272 265 262 260 263 273 283 289 292 293 295 298 300 301 303 303 305 308 311 313 313 313 312 310 311 311 311 312 313 313 311 311 312 312 313 314 318 320 320 322 324 325 325 325 326 326 327 327 328 329 329 329 330 333 335 334 335 336 334 330 327 326
261 259 261 266 274 280 281 282 284 286 285 284 282 280 278 277 275 277 282 287 290 291 283 271 267 268 268 269 274 281 287 291 293 296 298 299 300 301 300 301 303 303 303 304 304 303 302 302 303 304 306 309 308 307 308 308 309 310 311 314 316 317 318 321 321 321 322 323 324 324 323 325 326 326 327 328 331 333 334 335 336 334 330 326 325
260 257 257 263 272 277 278 278 280 283 286 286 284 282 281 281 280 281 285 289 292 295 292 282 276 276 278 279 281 283 288 292 294 295 296 296 296 297 297 296 296 295 295 295 295 294 294 295 295 297 300 303 303 304 306 307 308 309 311 312 313 313 314 317 318 318 319 320 320 320 320 321 323 324 324 325 328 331 332 334 336 335 330 326 324
263 259 259 264 270 271 272 276 279 283 286 285 283 280 280 283 285 287 288 289 293 298 298 291 286 283 284 286 287 289 292 294 295 296 296 296 295 293 292 291 291 291 291 291 291 291 290 290 291 293 296 298 298 300 303 304 305 307 309 310 310 311 312 314 316 315 315 316 317 317 317 318 319 320 321 322 324 327 329 332 335 334 330 324 324
263 262 265 269 269 267 270 274 277 279 279 278 277 277 278 281 285 287 288 285 286 291 291 291 288 284 283 285 288 291 293 294 297 300 301 300 299 296 295 294 295 296 296 294 293 294 293 292 291 292 293 293 293 296 298 299 300 302 304 305 306 307 308 311 312 312 312 313 314 314 315 316 317 318 318 319 321 324 326 328 331 332 329 323 323
260 263 269 271 268 264 266 270 274 273 272 273 273 272 272 274 277 279 282 283 284 284 287 290 291 289 287 287 288 290 293 295 299 303 302 300 298 298 298 299 301 302 300 299 300 300 299 298 297 296 294 292 291 292 293 293 295 298 300 301 302 303 305 307 309 308 309 311 311 311 313 314 315 316 316 315 318 320 322 324 327 329 327 323 321
258 260 265 267 266 263 262 265 270 270 269 271 270 270 272 273 276 278 279 279 280 282 284 287 290 291 292 292 294 294 293 295 298 299 298 297 296 294 294 295 297 297 296 298 300 301 300 299 299 297 295 292 291 291 291 291 293 295 297 297 298 300 303 305 306 306 308 309 309 310 312 312 313 314 313 312 314 317 319 321 323 325 325 321 319
252 255 261 265 265 264 260 261 264 266 269 272 271 273 274 273 276 278 278 278 280 282 284 285 286 287 289 291 294 295 296 297 298 297 297 297 295 293 293 292 293 294 293 293 295 296 296 296 296 295 293 291 291 291 291 292 293 294 295 296 297 299 301 304 305 305 306 307 307 308 311 311 312 313 312 310 310 314 318 319 319 320 322 320 317
248 253 260 261 259 258 259 264 267 269 273 277 278 277 275 275 277 279 278 278 280 283 286 287 287 287 288 290 292 293 295 296 297 297 296 294 292 291 292 293 294 295 296 294 292 293 295 296 296 294 292 289 289 290 291 292 294 295 295 296 298 299 300 302 304 304 303 304 306 307 309 310 311 313 314 313 312 313 317 319 318 317 318 318 315
247 253 257 257 256 258 264 270 272 271 273 276 278 278 275 275 278 281 283 284 286 290 291 290 288 286 286 287 288 290 292 293 294 293 292 291 290 291 292 293 293 293 295 295 292 291 293 293 294 295 294 291 290 290 291 292 293 294 295 297 299 299 299 301 303 302 301 303 305 307 308 309 310 312 314 315 315 314 316 319 318 314 315 315 313
247 254 255 254 257 263 271 275 274 273 272 271 270 269 267 265 268 273 278 282 287 291 292 291 290 289 289 288 288 288 289 290 290 289 288 288 290 292 294 294 293 295 298 297 293 291 290 290 291 293 294 294 293 293 293 294 294 294 296 298 298 298 298 300 301 300 301 302 304 305 307 309 310 311 312 314 316 316 318 320 318 314 313 313 310
249 253 253 253 258 269 275 276 277 278 274 271 272 270 267 266 267 269 272 275 279 283 285 286 288 291 292 292 290 289 289 288 287 286 286 287 289 292 293 293 294 298 300 297 292 291 291 291 291 292 292 293 293 293 294 295 295 295 296 296 296 297 298 299 298 298 300 300 302 304 306 308 309 311 312 312 314 316 318 320 318 314 313 311 308
Height
5940 5940 5940 5940 5940 5940 5940 5940 5939 5939 5939 5938 5938 5937 5937 5937 5936 5935 5934 5934 5933 5932 5933 5933 5933 5933 5933 5933 5933 5933 5932 5932 5932 5931 5931 5931 5932 5933 5932 5931 5930 5930 5930 5930 5930 5930 5930 5929 5929 5929 5929 5929 5929 5929 5928 5928 5928 5928 5928 5928 5928 5928 5928 5928 5928 5927 5927 5926 5926 5926 5926 5926 5926 5926 5926 5926 5926 5926 5926 5926 5926 5925 5925 5925 5925
5941 5941 5941 5941 5941 5941 5941 5940 5940 5940 5939 5939 5938 5938 5937 5937 5936 5936 5936 5935 5934 5933 5932 5932 5934 5934 5934 5934 5934 5934 5933 5933 5932 5932 5932 5932 5933 5933 5932 5931 5930 5930 5931 5931 5931 5931 5930 5930 5930 5930 5930 5930 5929 5929 5929 5929 5929 5929 5929 5929 5929 5929 5929 5928 5928 5927 5927 5926 5926 5926 5926 5926 5926 5926 5926 5926 5925 5925 5925 5925 5925 5925 5925 5925 5925
5942 5942 5942 5942 5942 5941 5941 5941 5941 5940 5940 5940 5939 5939 5938 5937 5936 5936 5936 5935 5935 5934 5933 5933 5934 5934 5934 5934 5934 5933 5933 5933 5933 5933 5933 5933 5934 5934 5933 5931 5931 5930 5931 5931 5931 5931 5931 5931 5931 5930 5931 5931 5930 5930 5930 5930 5930 5929 5929 5929 5929 5929 5929 5929 5928 5928 5927 5927 5926 5926 5926 5926 5926 5926 5926 5926 5925 5925 5924 5923 5924 5924 5924 5924 5924
5943 5943 5943 5943 5942 5942 5942 5942 5941 5941 5941 5941 5940 5939 5939 5937 5936 5936 5936 5935 5935 5936 5936 5936 5935 5934 5933 5933 5933 5933 5933 5934 5934 5935 5935 5935 5935 5934 5933 5932 5931 5931 5931 5931 5931 5931 5931 5931 5931 5931 5931 5931 5931 5931 5931 5931 5930 5930 5930 5930 5930 5930 5930 5929 5929 5929 5928 5928 5927 5927 5927 5927 5926 5926 5926 5926 5925 5925 5924 5922 5922 5923 5924 5924 5924
5943 5943 5944 5943 5943 5942 5942 5942 5942 5941 5941 5941 5941 5940 5939 5938 5937 5937 5936 5936 5936 5936 5936 5936 5936 5935 5934 5933 5933 5934 5934 5935 5935 5936 5936 5936 5935 5934 5933 5932 5932 5932 5932 5932 5932 5932 5932 5932 5932 5932 5932 5932 5932 5932 5932 5932 5931 5931 5931 5931 5931 5930 5930 5930 5930 5929 5929 5929 5928 5928 5928 5927 5927 5927 5927 5926 5926 5925 5924 5923 5922 5923 5923 5924 5924
5943 5943 5944 5944 5943 5943 5943 5943 5942 5942 5942 5941 5941 5941 5940 5939 5938 5937 5936 5936 5935 5936 5936 5936 5936 5937 5937 5935 5935 5935 5936 5936 5937 5937 5936 5936 5935 5934 5933 5933 5933 5933 5933 5933 5932 5932 5932 5933 5933 5932 5933 5933 5933 5933 5932 5932 5932 5932 5932 5931 5931 5931 5931 5931 5930 5930 5930 5929 5929 5929 5928 5928 5928 5927 5927 5927 5926 5925 5925 5924 5923 5923 5924 5924 5924
5943 5943 5944 5944 5944 5944 5943 5943 5943 5942 5942 5942 5942 5941 5941 5940 5939 5938 5937 5936 5936 5936 5936 5936 5935 5936 5937 5937 5936 5936 5937 5937 5937 5936 5936 5936 5935 5934 5934 5933 5933 5933 5934 5934 5933 5933 5933 5933 5933 5933 5933 5933 5933 5933 5933 5933 5932 5932 5932 5932 5932 5932 5932 5931 5931 5931 5930 5930 5930 5930 5929 5929 5929 5928 5928 5927 5927 5926 5925 5925 5924 5924 5924 5924 5924
5944 5944 5944 5944 5944 5944 5944 5944 5943 5943 5943 5942 5942 5942 5941 5941 5940 5940 5938 5937 5937 5936 5936 5935 5935 5935 5935 5937 5936 5936 5937 5937 5936 5936 5936 5935 5935 5935 5934 5934 5934 5934 5934 5935 5934 5934 5934 5934 5934 5934 5934 5934 5933 5933 5933 5933 5933 5933 5933 5933 5933 5933 5932 5932 5932 5932 5931 5931 5931 5930 5930 5930 5930 5929 5929 5928 5928 5927 5926 5926 5925 5925 5925 5925 5925
5944 5944 5944 5944 5945 5945 5945 5944 5944 5944 5943 5943 5943 5942 5942 5942 5941 5941 5940 5938 5938 5937 5936 5936 5935 5935 5935 5936 5936 5936 5936 5936 5936 5936 5936 5935 5935 5935 5935 5935 5935 5935 5935 5935 5935 5935 5935 5935 5935 5934 5934 5934 5934 5934 5933 5933 5933 5933 5933 5933 5933 5933 5933 5933 5933 5932 5932 5932 5931 5931 5931 5931 5930 5930 5930 5929 5929 5928 5928 5927 5927 5926 5926 5926 5925
5945 5945 5945 5945 5945 5945 5945 5945 5945 5945 5945 5944 5944 5943 5943 5943 5942 5942 5941 5940 5939 5938 5938 5937 5936 5936 5936 5937 5937 5937 5936 5937 5937 5937 5936 5936 5936 5936 5936 5936 5936 5936 5936 5936 5936 5935 5935 5935 5935 5935 5935 5934 5934 5934 5934 5933 5933 5933 5933 5933 5933 5934 5934 5934 5933 5933 5933 5932 5932 5932 5932 5932 5931 5931 5930 5930 5930 5929 5928 5928 5928 5927 5927 5926 5926
5945 5945 5945 5945 5945 5945 5946 5946 5946 5946 5946 5946 5945 5945 5944 5944 5943 5943 5942 5942 5941 5940 5939 5939 5938 5938 5938 5938 5938 5938 5938 5937 5937 5938 5937 5937 5937 5937 5937 5937 5936 5936 5936 5936 5936 5936 5935 5935 5935 5935 5935 5935 5935 5934 5934 5934 5934 5933 5934 5934 5934 5934 5934 5934 5934 5934 5933 5933 5933 5933 5933 5932 5932 5931 5931 5931 5930 5929 5929 5928 5928 5927 5927 5926 5926
5946 5946 5946 5946 5946 5946 5946 5947 5947 5947 5947 5947 5947 5946 5946 5945 5945 5944 5944 5943 5942 5941 5941 5940 5940 5939 5939 5939 5939 5939 5938 5938 5938 5938 5938 5938 5938 5938 5938 5938 5937 5937 5937 5937 5937 5936 5936 5936 5935 5936 5936 5936 5936 5935 5935 5935 5934 5934 5934 5934 5934 5934 5934 5934 5934 5934 5934 5934 5933 5933 5933 5933 5932 5932 5931 5931 5930 5930 5929 5929 5928 5928 5927 5926 5926
5946 5946 5946 5946 5946 5947 5947 5947 5947 5948 5948 5948 5948 5947 5947 5946 5946 5945 5945 5944 5943 5943 5942 5941 5941 5941 5940 5940 5940 5939 5939 5939 5939 5939 5939 5939 5939 5939 5939 5939 5938 5938 5938 5938 5937 5937 5937 5937 5936 5936 5936 5936 5936 5936 5936 5935 5935 5935 5935 5935 5934 5934 5934 5934 5934 5934 5934 5934 5933 5933 5933 5932 5932 5931 5931 5930 5930 5929 5929 5929 5928 5928 5927 5927 5926
5946 5947 5947 5947 5947 5947 5947 5948 5948 5948 5948 5948 5948 5948 5948 5947 5947 5946 5945 5945 5944 5944 5943 5942 5942 5941 5941 5940 5940 5940 5940 5940 5940 5940 5939 5939 5939 5939 5939 5939 5939 5939 5939 5938 5938 5938 5937 5937 5937 5937 5937 5937 5937 5937 5936 5936 5936 5936 5936 5935 5935 5935 5935 5935 5934 5934 5934 5934 5933 5933 5932 5932 5932 5931 5931 5930 5930 5929 5929 5928 5928 5927 5927 5927 5926
5947 5947 5947 5947 5947 5948 5948 5948 5948 5948 5949 5949 5949 5949 5948 5948 5947 5947 5946 5946 5946 5945 5944 5943 5943 5942 5942 5941 5941 5941 5941 5940 5940 5940 5940 5939 5939 5939 5940 5939 5939 5940 5940 5939 5939 5938 5938 5937 5937 5937 5937 5937 5937 5937 5937 5937 5937 5937 5936 5936 5936 5936 5935 5935 5935 5935 5934 5934 5933 5933 5932 5932 5931 5931 5930 5930 5929 5929 5928 5928 5927 5927 5926 5925 5925
5947 5947 5947 5947 5948 5948 5948 5949 5949 5949 5949 5949 5949 5949 5949 5948 5948 5947 5947 5947 5946 5946 5945 5944 5944 5943 5943 5943 5942 5942 5941 5941 5941 5941 5941 5940 5940 5940 5940 5940 5940 5940 5940 5940 5939 5939 5938 5938 5938 5937 5937 5937 5937 5937 5937 5937 5937 5937 5937 5936 5936 5936 5936 5935 5935 5934 5934 5934 5933 5933 5932 5932 5931 5931 5930 5929 5929 5928 5928 5927 5926 5925 5924 5924 5923
5947 5948 5948 5948 5948 5949 5949 5949 5949 5949 5950 5950 5950 5950 5949 5949 5948 5948 5948 5947 5947 5946 5946 5945 5944 5944 5944 5944 5943 5943 5942 5942 5942 5942 5942 5941 5941 5941 5941 5941 5940 5940 5940 5940 5939 5939 5939 5938 5938 5938 5937 5937 5937 5937 5937 5937 5937 5937 5936 5936 5936 5936 5936 5935 5934 5934 5933 5933 5932 5932 5931 5931 5930 5929 5929 5928 5928 5927 5927 5926 5925 5924 5923 5922 5921
5947 5948 5948 5948 5949 5949 5949 5949 5950 5950 5950 5950 5950 5950 5950 5949 5949 5948 5948 5948 5947 5947 5946 5946 5945 5945 5945 5945 5944 5944 5944 5943 5943 5943 5943 5942 5942 5942 5942 5941 5941 5941 5940 5940 5940 5939 5939 5939 5938 5938 5938 5937 5937 5937 5936 5936 5936 5936 5936 5936 5936 5935 5935 5935 5934 5933 5933 5932 5931 5931 5930 5929 5929 5928 5928 5927 5927 5926 5925 5924 5924 5923 5922 5921 5920
5947 5948 5948 5949 5949 5949 5950 5950 5950 5950 5950 5951 5951 5951 5950 5950 5949 5949 5949 5948 5948 5948 5947 5947 5946 5946 5946 5946 5946 5946 5945 5945 5944 5944 5943 5943 5942 5942 5942 5942 5941 5941 5941 5941 5940 5940 5939 5939 5939 5939 5938 5938 5937 5937 5936 5936 5936 5936 5936 5935 5935 5935 5935 5934 5934 5933 5932 5932 5931 5930 5930 5929 5928 5928 5927 5926 5925 5925 5924 5923 5922 5922 5921 5920 5919
5947 5948 5949 5949 5949 5950 5950 5950 5950 5950 5951 5951 5951 5951 5951 5950 5950 5950 5950 5949 5949 5949 5948 5948 5947 5947 5947 5947 5947 5946 5946 5946 5945 5944 5944 5943 5942 5942 5942 5942 5942 5942 5941 5941 5941 5940 5940 5940 5939 5939 5939 5938 5938 5937 5937 5936 5936 5936 5936 5935 5935 5935 5934 5934 5934 5933 5932 5932 5931 5930 5929 5928 5928 5927 5926 5925 5924 5924 5923 5922 5921 5920 5919 5918 5917
5948 5948 5949 5949 5950 5950 5950 5951 5951 5951 5951 5951 5951 5951 5951 5951 5951 5951 5950 5950 5950 5949 5949 5948 5948 5947 5947 5947 5947 5947 5947 5947 5946 5945 5945 5944 5943 5942 5942 5942 5942 5942 5942 5941 5941 5941 5941 5941 5940 5940 5939 5939 5938 5938 5938 5937 5937 5936 5936 5936 5935 5935 5934 5934 5933 5933 5932 5931 5930 5930 5929 5928 5927 5926 5925 5924 5923 5922 5921 5920 5920 5919 5918 5917 5916
5948 5949 5949 5949 5950 5950 5951 5951 5951 5951 5951 5951 5951 5951 5951 5951 5951 5951 5951 5951 5950 5950 5949 5949 5948 5948 5948 5948 5948 5948 5947 5947 5947 5946 5946 5945 5944 5944 5943 5942 5942 5942 5943 5943 5943 5942 5942 5942 5941 5941 5940 5940 5940 5939 5938 5938 5937 5937 5936 5936 5935 5935 5934 5933 5932 5932 5931 5930 5929 5928 5927 5926 5925 5924 5923 5922 5921 5921 5920 5919 5918 5917 5916 5915 5914
5948 5949 5949 5950 5950 5950 5951 5951 5951 5951 5951 5951 5951 5951 5951 5951 5951 5951 5951 5951 5951 5950 5950 5949 5949 5949 5949 5948 5948 5948 5948 5948 5947 5947 5946 5946 5946 5945 5945 5944 5944 5943 5943 5944 5944 5943 5942 5942 5942 5941 5941 5941 5940 5939 5939 5939 5938 5938 5937 5936 5935 5935 5934 5933 5932 5931 5930 5929 5928 5927 5926 5925 5924 5923 5922 5921 5920 5919 5918 5917 5917 5916 5914 5913 5912
5949 5949 5950 5950 5950 5951 5951 5951 5952 5952 5952 5951 5951 5951 5951 5951 5951 5951 5951 5951 5951 5951 5950 5950 5949 5949 5949 5949 5949 5949 5949 5948 5948 5948 5947 5946 5946 5946 5946 5946 5946 5945 5944 5944 5943 5943 5943 5942 5942 5941 5940 5940 5940 5939 5939 5939 5938 5938 5937 5936 5935 5934 5933 5932 5932 5931 5930 5929 5928 5927 5926 5925 5923 5922 5921 5920 5919 5918 5917 5916 5915 5914 5912 5911 5910
5949 5950 5950 5951 5951 5951 5952 5952 5952 5952 5952 5952 5951 5951 5951 5951 5951 5951 5951 5951 5951 5951 5951 5950 5950 5950 5950 5950 5950 5949 5949 5949 5949 5949 5948 5947 5947 5946 5946 5947 5947 5946 5946 5945 5944 5943 5943 5942 5941 5941 5941 5940 5940 5939 5938 5938 5938 5937 5936 5935 5934 5934 5933 5932 5931 5930 5929 5928 5927 5925 5924 5923 5922 5921 5920 5919 5918 5917 5915 5914 5913 5912 5910 5909 5907
5949 5950 5951 5951 5951 5952 5952 5952 5952 5952 5952 5952 5951 5951 5951 5951 5951 5951 5951 5951 5951 5951 5951 5951 5950 5950 5950 5950 5950 5950 5950 5950 5950 5950 5949 5949 5948 5948 5947 5946 5946 5946 5946 5946 5945 5944 5943 5942 5941 5941 5941 5941 5940 5939 5938 5938 5938 5937 5936 5935 5934 5933 5932 5931 5930 5929 5928 5927 5925 5924 5923 5922 5921 5920 5919 5918 5916 5915 5914 5913 5911 5910 5908 5906 5905
5950 5950 5951 5951 5952 5952 5952 5952 5952 5953 5953 5952 5952 5951 5951 5951 5951 5951 5951 5951 5951 5951 5951 5951 5951 5951 5951 5951 5951 5950 5950 5950 5950 5950 5950 5949 5949 5948 5948 5947 5946 5945 5945 5944 5944 5943 5943 5943 5942 5941 5941 5940 5939 5939 5938 5938 5937 5936 5935 5935 5934 5933 5932 5931 5930 5928 5927 5926 5925 5924 5922 5921 5920 5919 5917 5916 5915 5914 5912 5911 5909 5908 5906 5904 5902
5949 5950 5951 5951 5952 5952 5952 5952 5952 5953 5953 5953 5952 5952 5951 5951 5951 5951 5951 5951 5951 5951 5951 5951 5951 5951 5951 5951 5951 5951 5950 5950 5950 5949 5949 5949 5948 5948 5948 5947 5946 5945 5944 5943 5943 5942 5942 5942 5942 5941 5940 5940 5939 5939 5938 5937 5936 5935 5935 5934 5933 5933 5932 5930 5929 5928 5927 5925 5924 5923 5921 5920 5919 5917 5916 5915 5914 5912 5911 5909 5908 5906 5904 5902 5900
5949 5950 5950 5951 5951 5952 5952 5952 5952 5952 5952 5952 5952 5952 5951 5951 5951 5951 5950 5951 5951 5950 5950 5950 5950 5950 5950 5950 5950 5950 5950 5950 5949 5949 5949 5948 5948 5947 5947 5946 5946 5945 5944 5943 5942 5942 5941 5941 5941 5940 5940 5939 5939 5938 5938 5937 5936 5935 5934 5933 5933 5932 5931 5930 5929 5927 5926 5925 5923 5922 5920 5919 5918 5916 5915 5914 5912 5911 5909 5908 5906 5904 5902 5899 5897
5948 5949 5950 5950 5951 5951 5952 5952 5952 5952 5952 5952 5951 5952 5951 5951 5951 5950 5950 5950 5950 5950 5950 5950 5950 5950 5950 5950 5950 5950 5950 5949 5949 5949 5948 5948 5947 5947 5946 5945 5945 5944 5944 5943 5942 5941 5941 5940 5940 5940 5939 5939 5938 5938 5937 5936 5935 5935 5934 5933 5932 5931 5930 5929 5928 5927 5925 5924 5922 5921 5920 5918 5917 5915 5914 5912 5910 5909 5907 5905 5903 5901 5899 5897 5894
5948 5948 5949 5950 5950 5950 5951 5951 5951 5951 5951 5951 5951 5951 5951 5950 5950 5950 5949 5949 5949 5949 5949 5949 5949 5949 5949 5949 5949 5949 5949 5949 5949 5948 5948 5947 5947 5946 5946 5945 5944 5943 5943 5943 5942 5942 5941 5940 5940 5940 5939 5938 5937 5937 5937 5936 5935 5934 5934 5933 5932 5931 5930 5928 5927 5926 5924 5922 5921 5920 5918 5917 5915 5913 5912 5910 5908 5906 5904 5902 5900 5898 5896 5893 5891
5947 5947 5948 5949 5949 5949 5949 5950 5950 5950 5950 5950 5950 5950 5949 5949 5949 5949 5949 5948 5948 5948 5949 5949 5949 5949 5949 5949 5948 5948 5948 5948 5948 5947 5947 5946 5946 5945 5944 5944 5943 5943 5942 5942 5941 5941 5941 5940 5939 5939 5939 5938 5937 5936 5936 5936 5935 5934 5933 5932 5931 5929 5928 5927 5926 5924 5923 5921 5919 5918 5916 5915 5913 5911 5910 5908 5906 5904 5901 5899 5897 5895 5892 5890 5888
5945 5946 5947 5947 5948 5948 5948 5948 5948 5949 5949 5949 5949 5949 5948 5948 5948 5948 5948 5947 5947 5947 5948 5948 5948 5948 5948 5948 5948 5947 5947 5947 5946 5946 5946 5945 5944 5943 5943 5942 5942 5942 5941 5941 5940 5940 5940 5939 5939 5938 5938 5937 5936 5935 5934 5934 5934 5933 5932 5931 5929 5928 5927 5925 5924 5923 5921 5920 5918 5916 5914 5913 5911 5909 5907 5905 5903 5901 5899 5896 5894 5892 5889 5887 5884
5944 5944 5945 5945 5946 5947 5947 5947 5947 5947 5947 5947 5947 5948 5947 5947 5947 5947 5947 5947 5946 5946 5946 5946 5947 5946 5946 5946 5946 5946 5946 5946 5945 5945 5944 5944 5943 5942 5942 5941 5941 5941 5940 5940 5939 5939 5938 5938 5938 5937 5936 5936 5935 5935 5934 5933 5932 5931 5931 5929 5928 5927 5925 5924 5922 5921 5920 5918 5916 5914 5912 5911 5909 5907 5905 5903 5901 5898 5896 5894 5892 5889 5887 5884 5881
5942 5943 5944 5944 5944 5945 5946 5946 5946 5945 5945 5945 5946 5946 5946 5946 5946 5945 5945 5945 5945 5945 5945 5945 5945 5945 5945 5945 5945 5945 5945 5944 5944 5943 5943 5942 5942 5941 5941 5940 5940 5939 5939 5939 5939 5938 5937 5937 5936 5936 5935 5935 5934 5934 5933 5932 5931 5930 5929 5928 5927 5925 5924 5922 5921 5919 5918 5916 5914 5912 5910 5908 5906 5905 5903 5901 5898 5896 5894 5891 5889 5886 5884 5880 5877
5940 5941 5941 5942 5942 5943 5943 5943 5944 5944 5944 5943 5944 5944 5944 5944 5944 5944 5944 5944 5944 5944 5943 5943 5943 5944 5944 5943 5943 5943 5943 5943 5943 5942 5942 5941 5941 5940 5940 5939 5939 5938 5938 5938 5938 5938 5937 5936 5935 5934 5934 5934 5933 5933 5932 5931 5930 5929 5927 5926 5924 5923 5922 5920 5919 5917 5915 5914 5912 5910 5908 5906 5904 5902 5900 5898 5896 5893 5891 5888 5886 5883 5880 5877 5873
5938 5938 5939 5940 5940 5941 5941 5940 5941 5942 5942 5942 5942 5942 5942 5942 5942 5942 5943 5943 5942 5942 5942 5942 5942 5942 5942 5942 5942 5942 5942 5942 5941 5941 5941 5941 5940 5940 5939 5939 5938 5938 5938 5937 5937 5936 5936 5936 5935 5934 5933 5932 5931 5931 5930 5929 5928 5927 5925 5924 5922 5921 5919 5918 5916 5915 5913 5911 5910 5908 5906 5904 5902 5900 5897 5895 5893 5890 5887 5885 5882 5879 5876 5873 5870
5936 5936 5937 5937 5938 5938 5938 5938 5938 5939 5939 5940 5940 5939 5940 5940 5940 5940 5941 5941 5941 5940 5940 5940 5940 5941 5941 5941 5940 5941 5941 5941 5940 5940 5940 5940 5940 5940 5939 5938 5938 5937 5937 5937 5936 5935 5934 5934 5933 5933 5932 5931 5929 5928 5927 5926 5925 5924 5923 5922 5920 5919 5918 5916 5915 5913 5911 5909 5907 5905 5903 5901 5899 5897 5894 5892 5890 5887 5884 5881 5879 5876 5872 5869 5866
5934 5934 5935 5935 5936 5936 5936 5936 5936 5936 5936 5937 5937 5937 5937 5937 5938 5938 5938 5939 5939 5939 5939 5938 5938 5939 5939 5939 5939 5940 5940 5940 5939 5939 5939 5939 5939 5939 5938 5938 5938 5937 5937 5936 5935 5934 5933 5932 5931 5930 5930 5929 5928 5926 5925 5924 5923 5921 5920 5919 5917 5916 5915 5914 5912 5911 5909 5907 5905 5902 5900 5898 5896 5893 5891 5889 5887 5884 5880 5878 5875 5872 5868 5865 5863
5932 5932 5933 5933 5933 5934 5934 5934 5934 5934 5934 5934 5935 5935 5935 5935 5936 5936 5936 5936 5937 5937 5937 5937 5937 5937 5938 5939 5939 5939 5939 5939 5939 5938 5938 5938 5937 5937 5937 5937 5937 5936 5936 5935 5934 5933 5932 5931 5930 5928 5927 5926 5925 5924 5923 5921 5920 5918 5917 5917 5915 5913 5911 5910 5909 5907 5906 5905 5903 5900 5898 5896 5893 5891 5888 5886 5884 5881 5877 5874 5871 5868 5865 5862 5859
5929 5930 5931 5931 5931 5932 5932 5932 5932 5932 5932 5932 5932 5932 5933 5933 5934 5934 5934 5934 5934 5935 5935 5936 5936 5936 5937 5937 5938 5938 5938 5938 5938 5937 5937 5936 5935 5935 5935 5934 5934 5934 5934 5933 5932 5931 5930 5929 5928 5926 5925 5924 5922 5920 5919 5919 5917 5916 5915 5914 5913 5911 5909 5907 5905 5903 5902 5901 5899 5897 5895 5893 5891 5889 5886 5884 5881 5878 5874 5871 5867 5864 5860 5858 5855
5927 5928 5929 5929 5929 5929 5930 5930 5930 5930 5930 5930 5930 5930 5931 5931 5932 5932 5933 5933 5933 5933 5934 5934 5935 5935 5935 5936 5936 5937 5937 5937 5936 5935 5935 5934 5934 5933 5932 5931 5931 5931 5930 5930 5929 5928 5927 5926 5925 5924 5923 5922 5920 5917 5916 5916 5914 5913 5912 5910 5909 5908 5906 5905 5903 5900 5898 5897 5896 5893 5891 5890 5889 5886 5883 5881 5878 5876 5872 5867 5863 5860 5856 5854 5851
5925 5926 5927 5928 5928 5928 5928 5928 5928 5928 5928 5929 5929 5929 5929 5930 5930 5930 5931 5932 5932 5932 5932 5933 5933 5934 5934 5934 5934 5935 5935 5935 5934 5934 5933 5932 5932 5931 5930 5929 5928 5927 5927 5926 5926 5924 5923 5923 5923 5922 5921 5920 5918 5915 5914 5912 5911 5910 5909 5907 5905 5904 5903 5902 5901 5897 5895 5893 5892 5890 5887 5885 5885 5883 5880 5877 5875 5872 5869 5864 5860 5857 5853 5850 5847
5922 5923 5924 5925 5926 5926 5926 5926 5926 5927 5927 5927 5927 5927 5928 5928 5928 5929 5929 5930 5930 5931 5931 5931 5932 5932 5932 5932 5932 5932 5932 5932 5932 5932 5931 5930 5929 5928 5927 5926 5925 5924 5923 5923 5922 5921 5920 5920 5919 5919 5918 5917 5915 5913 5911 5909 5907 5907 5906 5904 5902 5900 5898 5898 5897 5894 5892 5890 5888 5886 5883 5881 5880 5879 5876 5873 5871 5868 5865 5861 5858 5854 5850 5847 5844
5921 5922 5922 5923 5924 5924 5924 5924 5924 5925 5925 5925 5926 5926 5926 5926 5927 5927 5928 5928 5929 5929 5929 5930 5930 5930 5930 5930 5930 5930 5930 5930 5930 5930 5929 5928 5927 5926 5925 5924 5923 5921 5920 5919 5920 5919 5917 5916 5916 5916 5915 5913 5911 5910 5908 5905 5904 5903 5902 5900 5898 5896 5895 5894 5893 5890 5888 5886 5884 5883 5881 5877 5875 5874 5871 5869 5867 5864 5861 5858 5855 5851 5848 5844 5841
5919 5920 5920 5921 5921 5922 5922 5922 5923 5923 5923 5924 5924 5924 5924 5925 5925 5926 5926 5927 5927 5928 5928 5928 5928 5928 5928 5928 5928 5928 5928 5928 5928 5927 5927 5926 5925 5924 5923 5922 5921 5920 5918 5917 5917 5916 5914 5913 5912 5912 5911 5909 5907 5907 5904 5901 5901 5900 5898 5897 5894 5892 5891 5890 5888 5886 5884 5882 5879 5878 5877 5874 5871 5869 5867 5865 5863 5860 5857 5854 5851 5848 5844 5841 5838
5916 5917 5918 5918 5919 5920 5920 5920 5921 5921 5921 5922 5922 5922 5923 5923 5923 5924 5924 5925 5926 5926 5926 5926 5926 5926 5926 5926 5926 5926 5925 5925 5925 5924 5924 5923 5922 5921 5920 5919 5919 5917 5916 5915 5914 5912 5910 5909 5908 5907 5906 5904 5903 5903 5900 5898 5897 5896 5895 5893 5891 5889 5887 5885 5884 5882 5880 5878 5875 5874 5873 5869 5866 5864 5862 5860 5858 5856 5853 5850 5848 5844 5841 5838 5835
5913 5914 5915 5916 5916 5917 5917 5918 5919 5919 5919 5920 5921 5921 5921 5921 5921 5922 5922 5923 5923 5924 5924 5924 5924 5924 5924 5923 5923 5923 5922 5922 5922 5921 5920 5918 5917 5917 5916 5915 5914 5913 5913 5913 5911 5909 5906 5905 5903 5902 5901 5900 5898 5898 5896 5894 5892 5891 5889 5889 5887 5885 5882 5880 5879 5877 5875 5873 5871 5869 5868 5865 5862 5860 5858 5855 5853 5851 5849 5846 5844 5841 5838 5834 5831
5911 5912 5912 5913 5914 5914 5915 5916 5917 5917 5918 5918 5919 5919 5919 5919 5918 5918 5919 5919 5920 5921 5921 5921 5921 5921 5921 5921 5920 5919 5919 5919 5918 5917 5915 5913 5912 5912 5911 5910 5909 5908 5909 5909 5907 5904 5902 5900 5898 5896 5895 5894 5893 5892 5891 5889 5888 5885 5884 5883 5883 5880 5877 5875 5874 5872 5870 5868 5867 5865 5863 5861 5858 5856 5853 5851 5849 5847 5844 5842 5839 5836 5833 5830 5826
5908 5909 5910 5911 5911 5912 5913 5914 5914 5915 5916 5917 5917 5918 5917 5917 5917 5916 5916 5916 5917 5917 5917 5916 5916 5917 5917 5917 5917 5916 5916 5916 5914 5912 5911 5909 5907 5906 5905 5904 5902 5903 5905 5904 5901 5898 5897 5894 5892 5890 5889 5888 5887 5886 5885 5884 5882 5880 5878 5877 5876 5874 5872 5870 5869 5866 5864 5863 5862 5859 5858 5856 5854 5852 5849 5847 5845 5843 5839 5837 5835 5832 5829 5826 5823
5905 5906 5907 5908 5909 5910 5911 5911 5912 5913 5914 5915 5915 5915 5915 5915 5915 5915 5914 5914 5915 5915 5914 5913 5912 5912 5912 5912 5912 5911 5911 5911 5910 5908 5907 5905 5903 5902 5900 5898 5897 5898 5900 5897 5893 5892 5890 5888 5886 5884 5882 5882 5881 5879 5879 5878 5876 5874 5873 5871 5870 5868 5866 5865 5863 5860 5858 5857 5855 5853 5852 5851 5849 5847 5845 5842 5840 5838 5835 5833 5830 5828 5825 5822 5819